Weather in Khulna

Bangladesh     22°50′11″N   89°32′10″E
temp.,
°C
wind,
m/s
gust,
m/s
humid.,
%
clouds,
%
prec.,
mm/h
press.,
hPa
HPBL,
m
21 january, fri
fri2100:00+16nw11341 0.0 101211
03:00+15nne113885 0.0 101211
06:00+14ne22415 0.0 101210
09:00+19ene013114 0.0 1014226
12:00+25ese212296 0.0 10131164
15:00+26wsw22225 0.0 10101936
18:00+22sw11293 0.0 101012
21:00+18sw34580 0.0 101359
22 january, sat
sat2200:00+17ssw23745 0.0 101236
03:00+16wsw117957 0.0 101111
06:00+16sse11825 0.0 101111
09:00+21ese115997 0.0 1013303
12:00+26ssw12375 0.0 10121711
15:00+27w243194 0.0 10082401
18:00+23s474698 0.0 1009282
21:00+21se2561100 0.0 1011180
23 january, sun
sun2300:00+19sse23765 0.3 101144
03:00+18sse23834 0.0 101036
06:00+17sse22865 0.0 101021
09:00+22se23625 0.0 1013394
12:00+27s33395 0.0 10111938
15:00+27wnw223839 0.1 10081520
18:00+21n017486 0.8 1011174
21:00+19ne237387 0.1 101259
24 january, mon
mon2400:00+19n1171100 0.5 101267
03:00+18e117752 0.3 101014
06:00+17ene128995 2.0 101033
09:00+18ene2488100 2.3 1013213
12:00+20ene3474100 2.9 1012336
15:00+20ese347248 2.0 1010308
18:00+19e357841 2.3 101199
21:00+17ese36832 0.0 1013145
25 january, tue
tue2500:00+17ese3585100 0.2 1012116
03:00+16ese22872 0.4 101042
06:00+16ene23921 0.7 101159
09:00+20ene34750 0.5 1013349
12:00+25ese22560 0.5 1011955
15:00+27w12460 0.0 10081648
18:00+24nnw22540 0.0 100814
21:00+21wsw227722 1.4 101124